sat.trackr.live / text

‹ back to catalog

STARLINK-3459

NORAD 51757 · 2022-016AV

PAYLOAD ACTIVE UNKNOWN

§ Identity

Operator
Country
US
Launch date
2022-02-21
Launch site
AFETR
Launch vehicle
Mass (kg)
RCS (m²)

Purposes: comms

External: N2YO · Heavens-Above · Gunter

§ Orbital elements

Epoch: 2026-09-20T00:49:30.304992Z

Period
93.85 min
Inclination
53.1608°
Eccentricity
0.0001211
Mean motion
15.34378429 rev/d
Perigee alt
461.9 km
Apogee alt
463.6 km
Semi-major
6,840.9 km
B*
2.9549e-5
RAAN
141.5519°
Arg perigee
91.4983°
Mean anomaly
268.6158°
Rev number
25,325

§ Raw data

STARLINK-34591 51757U 22016AV  26263.03437853  .00000622  00000+0  29549-4 0  99902 51757  53.1608 141.5519 0001211  91.4983 268.6158 15.34378429253254

JSON: /api/v1/satellites/51757 · /tle

For live sub-satellite position, see the globe view (requires WebGL).

§ Visibility from observer

Set your observer location to see the next 7 days of passes ≥ 10°. The values pass through the URL so the page stays shareable.

No JS? Fill the form by hand. The geolocation button needs JavaScript.